Regional Weather Roundup
Issued by NWS

Home | Current Version | Previous Version | Text Only | Print | Product List | Glossary On
Versions: 1 2 3 4 5 6 7 8 9 10 11 12 13 14 15 16 17 18 19 20 21 22 23 24 25 26 27 28 29 30 31 32 33 34 35 36 37 38 39 40 41 42 43 44 45 46 47 48 49 50
000
ASUS43 KMPX 041201
RWRMN
WEATHER ROUNDUP FOR MINNESOTA
NATIONAL WEATHER SERVICE TWIN CITIES/CHANHASSEN MN
700 AM CDT SAT JUL 04 2015


NOTE: "FAIR" INDICATES FEW OR NO CLOUDS BELOW 12,000 FEET WITH NO
SIGNIFICANT WEATHER AND/OR OBSTRUCTIONS TO VISIBILITY. N/A MEANS
CURRENT SKY AND/OR WEATHER CONDITIONS ARE NOT AVAILABLE.

MNZ060>063-068>070-041300-
   Twin Cities Metro

CITY           SKY/WX    TMP DP  RH WIND       PRES   REMARKS
TWIN CITIES    PTSUNNY   66  60  81 CALM      29.95R HAZE
6HR MIN TEMP:  65; 6HR MAX TEMP:  70;

ST PAUL        SUNNY     64  62  93 CALM      29.95R FOG
CRYSTAL        SUNNY     64  60  87 CALM      29.93S FOG
BLAINE         SUNNY     63  63 100 CALM      29.95S FOG
LAKEVILLE      SUNNY     61  57  88 CALM      29.95S
EDEN PRAIRIE   MOSUNNY   64  61  90 CALM      29.94R FOG
6HR MIN TEMP:  62; 6HR MAX TEMP:  67;

SOUTH ST PAUL  SUNNY     65  59  81 CALM      29.95R
LAKE ELMO      FAIR      61  59  94 CALM      29.96S FOG
$$
MNZ001>005-007-008-013>017-022>024-027-028-041300-
   Northwest Minnesota

CITY           SKY/WX    TMP DP  RH WIND       PRES   REMARKS
BEMIDJI        SUNNY     54  53  94 CALM      29.95R
HALLOCK        SUNNY     59  57  94 SE7       29.87R FOG
ROSEAU         MOSUNNY   61  55  82 S3        29.91R
WARROAD        MOSUNNY   61  57  88 S6        29.91S
THIEF RVR FALL SUNNY     61  57  88 SE6       29.91S
CROOKSTON      SUNNY     61  57  88 S7        29.90S FOG
FOSSTON        SUNNY     59  55  88 SE6       29.93S FOG
DETROIT LAKES  SUNNY     63  61  94 CALM      29.95S FOG
MOORHEAD         N/A     64  61  88 S7        29.92R FOG
PARK RAPIDS    FOG       56  55  97 CALM      29.95S VSB 1/2
MAHNOMEN       FAIR      62  59  89 SE6       29.92S FOG
$$
MNZ006-009>011-018-025>026-041300-
   North Central Minnesota

CITY           SKY/WX    TMP DP  RH WIND       PRES   REMARKS
BAUDETTE       SUNNY     57  53  86 SE5       29.92S
FLAG ISLAND    MOSUNNY   70  61  73 S7        29.90R
INTL FALLS     SUNNY     53  52  96 SE5       29.96R
6HR MIN TEMP:  46; 6HR MAX TEMP:  53;

WASKISH        SUNNY     55  54  94 SE5       29.94S
BIG FORK       MOSUNNY   52  50  93 CALM      29.97S FOG
LONGVILLE      SUNNY     54  54 100 CALM      29.96R FOG
GRAND RAPIDS   SUNNY     55  52  88 CALM      29.97S
CRANE LAKE     SUNNY     46  46 100 CALM      29.99R
ORR            SUNNY     54  52  94 CALM      29.96R FOG
COOK           SUNNY     50  50 100 CALM      29.98S FOG
WALKER         FAIR      53  53  98 CALM      29.95S FOG
$$
MNZ012-019>021-037-041300-
   Northeast Minnesota

CITY           SKY/WX    TMP DP  RH WIND       PRES   REMARKS
DULUTH         SUNNY     61  55  81 E5        29.97R
6HR MIN TEMP:  58; 6HR MAX TEMP:  62;

ELY            MOSUNNY   48  48 100 CALM      29.99R FOG
HIBBING        SUNNY     52  51  97 CALM      29.98R
DULUTH HARBOR  SUNNY     63  59  88 E8        29.97R
TWO HARBORS    SUNNY     64  57  77 VRB5      29.96R
SILVER BAY     SUNNY     57  54  88 CALM      29.97R
GRAND MARAIS     N/A     58  54  86 CALM      29.98R
G MARAIS ARPRT SUNNY     52  48  87 CALM      30.01S
$$
MNZ029>031-032-039>041-046>048-054>057-064-041300-
   West Central Minnesota

CITY           SKY/WX    TMP DP  RH WIND       PRES   REMARKS
FERGUS FALLS   FAIR      66  63  88 SE5       29.93R FOG
WHEATON          N/A     61  59  94 E3        29.94R FOG
MORRIS         FOG       61  61 100 CALM      29.93R VSB<1/4
ALEXANDRIA     PTSUNNY   64  61  90 SE5       29.96S FOG
ELBOW LAKE     FAIR      64  61  90 SE6       29.93R FOG
WADENA         FOG       55  54  94 CALM      29.95S VSB 3/4
GLENWOOD       FOG       59  59 100 E3        29.96R VSB<1/4
APPLETON       FOG       63  61  94 CALM      29.93R VSB<1/4
BENSON         FOG       61  57  88 CALM      29.94R VSB<1/4
ORTONVILLE     SUNNY     63  61  94 SE3       29.93R FOG
MADISON        PTSUNNY   63  61  94 CALM      29.93S FOG
WILLMAR        FAIR      63  61  94 CALM      29.96R FOG
$$
MNZ033>034-036-042>043-049>051-058-059-041300-
   Central Minnesota

CITY           SKY/WX    TMP DP  RH WIND       PRES   REMARKS
ST CLOUD       FOG       61  60  97 CALM      29.94S VSB 1
6HR MIN TEMP:  57; 6HR MAX TEMP:  62;

SAUK CENTRE    FOG       57  57  99 CALM      29.96R VSB 3/4
PAYNESVILLE    FOG       56  56 100 CALM      29.96R VSB<1/4
AITKIN         PTSUNNY   54  48  82 CALM      29.95R HAZE
PINE RIVER     SUNNY     54  54 100 CALM      29.99R FOG
BRAINERD       MOSUNNY   55  55 100 CALM      29.96R FOG
STAPLES        FOG       55  55 100 CALM      29.96R VSB 1/2
LONG PRAIRIE   CLOUDY    59  57  94 CALM      29.96R FOG
LITTLE FALLS   FOG       57  55  94 CALM      29.95S VSB<1/4
LITCHFIELD     SUNNY     63  63 100 CALM      29.95S FOG
BUFFALO        SUNNY     61  58  90 CALM      29.96R FOG
MAPLE LAKE       N/A     61  61  99 CALM      29.95S FOG
$$
MNZ037-044-045-052-053-041300-
   East Central Minnesota

CITY           SKY/WX    TMP DP  RH WIND       PRES   REMARKS
PRINCETON      SUNNY     59  57  94 CALM      29.95S FOG
MORA             N/A     55  54  94 CALM      29.97S FOG
CAMBRIDGE      HAZE      61  54  77 CALM      29.94R VSB 1/2
RUSH CITY      SUNNY     57  57  97 CALM      29.95R FOG
MOOSE LAKE     SUNNY     55  55 100 NE3       29.95S FOG
HINCKLEY       FAIR      59  59 100 CALM      29.96R FOG
CLOQUET        SUNNY     55  54  94 CALM      29.97R
MCGREGOR       SUNNY     54  52  94 CALM      29.97R
$$
MNZ071>073-080-081-089-090-097-098-041300-
   Southwest Minnesota

CITY           SKY/WX    TMP DP  RH WIND       PRES   REMARKS
MONTEVIDEO     SUNNY     66  63  88 CALM      29.95R FOG
GRANITE FALLS  SUNNY     62  62  99 CALM      29.96R FOG
CANBY          SUNNY     66  62  89 W3        29.95R FOG
MARSHALL       SUNNY     66  61  82 W5          N/A
REDWOOD FALLS  SUNNY     65  62  90 SW5       29.95R FOG
OLIVIA         SUNNY     61  57  88 CALM      29.94R FOG
PIPESTONE      SUNNY     63  59  88 CALM      29.97S FOG
WINDOM         SUNNY     63  59  88 CALM      29.98R FOG
WORTHINGTON    SUNNY     63  55  77 SW8       29.98S
JACKSON        SUNNY     63  55  77 SW5       29.98S HAZE
TRACY          MOSUNNY   66  63  88 SW6       29.96S FOG
SLAYTON        SUNNY     64  61  88 CALM      29.99R FOG
$$
MNZ065>067-074>077-082>085-091>093-041300-
   South Central Minnesota

CITY           SKY/WX    TMP DP  RH WIND       PRES   REMARKS
MANKATO        SUNNY     61  57  88 S5        29.96S
NEW ULM        SUNNY     63  61  94 CALM      29.95S FOG
ST JAMES       SUNNY     63  61  94 CALM      29.97S FOG
FAIRMONT       SUNNY     63  54  72 W5        29.97S
GLENCOE        SUNNY     60  59  96 CALM      29.95S FOG
FARIBAULT      SUNNY     61  59  94 CALM      29.96S FOG
OWATONNA       SUNNY     63  57  82 CALM      29.97S FOG
WASECA           N/A     57  55  94 CALM      29.98S FOG
ALBERT LEA     SUNNY     61  59  94 CALM      29.98S
$$
MNZ078>079-086>088-094>096-041300-
   Southeast Minnesota

CITY           SKY/WX    TMP DP  RH WIND       PRES   REMARKS
ROCHESTER      SUNNY     60  57  89 S3        29.99R
6HR MIN TEMP:  58; 6HR MAX TEMP:  63;

RED WING       SUNNY     61  57  88 CALM      29.95R
STANTON        SUNNY     61  57  88 CALM      29.95R
DODGE CENTER   MOSUNNY   61  57  88 SW3       29.97S
WINONA         SUNNY     61  59  94 CALM      29.97S
AUSTIN         SUNNY     59  55  88 CALM      29.98S
PRESTON        SUNNY     59  53  80 CALM      29.99S
$$
ABBREVIATIONS USED IN REMARKS
   TC - TEMPERATURES IN CELSIUS
  WCI - WIND CHILL INDEX
   HX - HEAT INDEX
  VSB - VISIBILITY
$$



USA.gov is the U.S. government's official web portal to all federal, state and local government web resources and services.